Вернуться в каталог

STARLINK-37728

АктивенСвязьSSO
NORAD 69221·PAYLOAD·🇺🇸 United States

Запущен May 26, 2026 с Vandenberg Space Force Base

Loading…

Ближайшие Пролёты (ближайшие 24 часа)

TLE

СвежийSource: CelesTrak SupGP

Эпоха: Sep 15, 2026, 03:11 UTC

1 69221C 26115L   26258.13312500 -.00165390  00000+0 -51450-2 0  2583
2 69221  97.2832 274.2989 0001784 111.2366  27.2029 15.33454025    19

Отслеживайте STARLINK-37728 в реальном времени с AllMySat

Download on the App Store